Home   Weather   Escuintla   Past weeks

Flag for Guatemala Past Weather in Escuintla, Guatemala — Yesterday and Last 2 Weeks

Now
68 °F

Scattered clouds.


Feels Like: 68 °F
Forecast: 73 / 92 °F
Wind: 12 mph from Northeast

Location: Guatemala Aeropuertola Aurora

Current Time: Jul 24, 2017 at 8:39:25 am

Latest Report: Jul 24, 2017 at 8:00 am


Visibility: N/A

Pressure: 30.30 "Hg

Humidity: 83%

Dew Point: 63 °F

Location of EscuintlaLocation

Past Weather in Escuintla — Graph

°F

Escuintla Temperature Yesterday

Maximum temperature yesterday: 77 °F (at 12:00 pm)
Minimum temperature yesterday: 63 °F (at 3:00 am)
Average temperature yesterday: 70 °F

High & Low Weather Summary for the Past Weeks

 TemperatureHumidityPressure
High79 °F (Jul 10, 2:00 pm)100% (Jul 15, 1:00 am)30.39 "Hg (Jul 15, 1:00 am)
Low61 °F (Jul 10, 6:00 am)47% (Jul 9, 2:00 pm)30.21 "Hg (Jul 11, 4:00 pm)
Average69 °F77%30.30 "Hg
* Reported Jul 9 7:00 am — Jul 24 7:00 am, Escuintla. Weather by CustomWeather, © 2017

Note: Actual official high and low records may vary slightly from our data, if they occured in-between our weather recording intervals... More about our weather records

Advertising

Escuintla Weather History for the Previous 24 Hours

Scroll right to see more
 ConditionsComfort  
Time TempWeatherWind HumidityBarometerVisibility
7:00 am
Mon, Jul 24
66 °FPartly sunny.9 mph88%30.30 "HgN/A
6:00 am66 °FScattered clouds.9 mph88%30.27 "HgN/A
5:00 am66 °FPartly cloudy.7 mph88%30.24 "HgN/A
4:00 am66 °FPartly cloudy.7 mph88%30.24 "HgN/A
3:00 am66 °FPassing clouds.9 mph88%30.24 "HgN/A
2:00 am66 °FPartly cloudy.9 mph88%30.27 "HgN/A
1:00 am66 °FPassing clouds.9 mph88%30.27 "HgN/A
12:00 am66 °FPassing clouds.12 mph94%30.30 "HgN/A
11:00 pm
Sun, Jul 23
66 °FPassing clouds.12 mph88%30.33 "HgN/A
10:00 pm68 °FPassing clouds.14 mph83%30.33 "HgN/A
9:00 pm70 °FPassing clouds.9 mph78%30.30 "HgN/A
8:00 pm70 °FPassing clouds.7 mph78%30.30 "HgN/A
7:00 pm70 °FPassing clouds.No wind78%30.24 "HgN/A
6:00 pm70 °FScattered clouds.No wind83%30.24 "HgN/A
5:00 pm73 °FScattered clouds.9 mph65%30.21 "HgN/A
4:00 pm73 °FThunderstorms. Scattered clouds.12 mph65%30.21 "HgN/A
3:00 pm75 °FScattered showers. Scattered clouds.16 mph57%30.21 "Hg5 mi
2:00 pm77 °FScattered clouds.16 mph57%30.24 "HgN/A
1:00 pm77 °FPartly sunny.14 mph61%30.24 "HgN/A
12:00 pm77 °FScattered clouds.9 mph54%30.27 "HgN/A
11:00 am75 °FPassing clouds.7 mph61%30.27 "HgN/A
10:00 am73 °FScattered clouds.14 mph61%30.30 "HgN/A
9:00 am72 °FScattered clouds.14 mph65%30.30 "HgN/A
8:00 am68 °FPartly sunny.9 mph78%30.30 "HgN/A
Weather by CustomWeather, © 2017

See weather overviewHow to use our weather pages